Radiation Dose at Monitoring Post of Fukushima Daini Nuclear Power Station
Date,Time,MP-1(microSv/h),MP-2(microSv/h),MP-3(microSv/h),MP-4(microSv/h),MP-5(microSv/h),MP-6(microSv/h),MP-7(microSv/h),Wind Direction,Wind Velocity(m/s),Rain
2016/03/03,00:00,0.465,0.268,0.485,0.433,0.398,0.219,0.192,west-southwest,3.3,No
2016/03/03,00:10,0.465,0.269,0.483,0.433,0.398,0.219,0.192,southwest,3.7,No
2016/03/03,00:20,0.466,0.267,0.485,0.432,0.397,0.219,0.192,west-southwest,2.8,No
2016/03/03,00:30,0.462,0.267,0.485,0.433,0.396,0.219,0.192,southwest,4.1,No
2016/03/03,00:40,0.465,0.268,0.482,0.433,0.396,0.219,0.192,south-southwest,4.5,No
2016/03/03,00:50,0.464,0.267,0.483,0.432,0.397,0.218,0.191,southwest,5.0,No
2016/03/03,01:00,0.465,0.268,0.483,0.432,0.398,0.219,0.193,southwest,6.2,No
2016/03/03,01:10,0.463,0.268,0.485,0.432,0.397,0.218,0.192,southwest,4.5,No
2016/03/03,01:20,0.465,0.267,0.484,0.433,0.397,0.220,0.193,southwest,3.8,No
2016/03/03,01:30,0.464,0.268,0.483,0.432,0.398,0.219,0.192,south-southwest,3.3,No
2016/03/03,01:40,0.464,0.267,0.483,0.431,0.399,0.219,0.193,south-southwest,5.3,No
2016/03/03,01:50,0.465,0.267,0.484,0.432,0.398,0.219,0.192,south-southwest,5.8,No
2016/03/03,02:00,0.465,0.267,0.484,0.431,0.396,0.219,0.192,south-southwest,6.8,No
2016/03/03,02:10,0.464,0.268,0.484,0.433,0.398,0.220,0.192,south-southwest,7.1,No
2016/03/03,02:20,0.464,0.268,0.484,0.432,0.399,0.218,0.193,south-southwest,5.0,No
2016/03/03,02:30,0.463,0.266,0.484,0.429,0.398,0.220,0.192,south-southwest,7.0,No
2016/03/03,02:40,0.464,0.268,0.484,0.433,0.397,0.219,0.192,southwest,5.9,No
2016/03/03,02:50,0.463,0.267,0.482,0.432,0.398,0.218,0.191,south-southwest,5.3,No
2016/03/03,03:00,0.463,0.267,0.483,0.431,0.398,0.219,0.192,southwest,3.4,No
2016/03/03,03:10,0.464,0.266,0.483,0.432,0.397,0.220,0.191,south-southwest,4.7,No
2016/03/03,03:20,0.463,0.267,0.485,0.432,0.397,0.218,0.193,south-southwest,3.9,No
2016/03/03,03:30,0.464,0.267,0.484,0.433,0.398,0.219,0.192,south-southwest,4.2,No
2016/03/03,03:40,0.464,0.267,0.484,0.433,0.396,0.219,0.192,south-southwest,3.9,No
2016/03/03,03:50,0.464,0.267,0.483,0.432,0.398,0.219,0.193,south-southwest,5.9,No
2016/03/03,04:00,0.464,0.266,0.485,0.431,0.399,0.219,0.191,south-southwest,6.4,No
2016/03/03,04:10,0.463,0.266,0.485,0.431,0.397,0.220,0.192,south-southwest,5.8,No
2016/03/03,04:20,0.464,0.269,0.483,0.433,0.397,0.220,0.192,south-southwest,5.8,No
2016/03/03,04:30,0.463,0.267,0.483,0.432,0.397,0.218,0.192,south-southwest,5.7,No
2016/03/03,04:40,0.463,0.268,0.484,0.431,0.398,0.219,0.192,south-southwest,6.6,No
2016/03/03,04:50,0.463,0.266,0.484,0.433,0.396,0.218,0.191,south-southwest,8.4,No
2016/03/03,05:00,0.465,0.266,0.483,0.432,0.396,0.217,0.192,south-southwest,7.8,No
2016/03/03,05:10,0.463,0.267,0.483,0.433,0.397,0.218,0.192,south-southwest,8.9,No
2016/03/03,05:20,0.463,0.268,0.483,0.433,0.397,0.218,0.191,south-southwest,10.0,No
2016/03/03,05:30,0.464,0.267,0.485,0.432,0.397,0.218,0.190,south-southwest,10.4,No
2016/03/03,05:40,0.463,0.267,0.483,0.434,0.396,0.219,0.192,south-southwest,8.8,No
2016/03/03,05:50,0.465,0.267,0.483,0.433,0.398,0.219,0.193,south-southwest,8.9,No
2016/03/03,06:00,0.464,0.268,0.486,0.432,0.398,0.219,0.192,south-southwest,9.1,No
2016/03/03,06:10,0.464,0.269,0.483,0.432,0.397,0.218,0.191,south-southwest,9.2,No
2016/03/03,06:20,0.463,0.266,0.482,0.432,0.397,0.219,0.191,south-southwest,10.3,No
2016/03/03,06:30,0.464,0.266,0.481,0.433,0.398,0.218,0.192,south-southwest,8.7,No
2016/03/03,06:40,0.463,0.266,0.483,0.432,0.397,0.219,0.192,south-southwest,8.1,No
2016/03/03,06:50,0.462,0.267,0.483,0.431,0.396,0.218,0.192,south-southwest,8.5,No
2016/03/03,07:00,0.464,0.267,0.481,0.432,0.398,0.218,0.192,south-southwest,8.8,No
2016/03/03,07:10,0.465,0.266,0.484,0.433,0.396,0.219,0.192,south-southwest,7.7,No
2016/03/03,07:20,0.464,0.267,0.484,0.431,0.398,0.217,0.191,south-southwest,8.0,No
2016/03/03,07:30,0.464,0.267,0.484,0.431,0.397,0.219,0.192,south-southwest,7.3,No
2016/03/03,07:40,0.463,0.267,0.485,0.432,0.395,0.218,0.192,south-southwest,7.0,No
2016/03/03,07:50,0.466,0.267,0.484,0.432,0.397,0.219,0.191,south-southwest,7.0,No
2016/03/03,08:00,0.463,0.268,0.482,0.431,0.399,0.219,0.191,south,7.8,No
2016/03/03,08:10,0.463,0.267,0.482,0.432,0.398,0.218,0.191,south,8.0,No
2016/03/03,08:20,0.466,0.267,0.483,0.430,0.396,0.218,0.192,south,8.7,No
2016/03/03,08:30,0.462,0.267,0.481,0.431,0.398,0.220,0.191,south,9.7,No
2016/03/03,08:40,0.466,0.268,0.483,0.434,0.398,0.219,0.192,south,10.1,No
2016/03/03,08:50,0.464,0.268,0.484,0.433,0.396,0.220,0.192,south,9.6,No
2016/03/03,09:00,0.465,0.267,0.482,0.432,0.398,0.219,0.191,south,10.2,No
2016/03/03,09:10,0.465,0.268,0.483,0.433,0.399,0.219,0.192,south,10.2,No
2016/03/03,09:20,0.467,0.268,0.484,0.433,0.398,0.219,0.192,south-southeast,9.2,No
2016/03/03,09:30,0.464,0.266,0.482,0.431,0.397,0.219,0.192,south,9.9,No
2016/03/03,09:40,0.465,0.268,0.485,0.432,0.399,0.218,0.192,south-southeast,9.0,No
2016/03/03,09:50,0.463,0.266,0.483,0.430,0.397,0.219,0.191,south,7.9,No
2016/03/03,10:00,0.463,0.266,0.480,0.431,0.398,0.219,0.191,south,8.0,No
2016/03/03,10:10,0.465,0.266,0.483,0.432,0.398,0.220,0.193,south,8.5,No
2016/03/03,10:20,0.463,0.266,0.482,0.429,0.398,0.218,0.192,south-southwest,7.8,No
2016/03/03,10:30,0.465,0.267,0.483,0.432,0.398,0.218,0.191,south-southwest,5.9,No
2016/03/03,10:40,0.463,0.266,0.481,0.430,0.397,0.219,0.192,south-southwest,2.9,No
2016/03/03,10:50,0.468,0.267,0.480,0.432,0.399,0.219,0.191,south-southwest,4.5,No
2016/03/03,11:00,0.464,0.267,0.484,0.429,0.397,0.218,0.192,west-southwest,4.2,No
2016/03/03,11:10,0.465,0.267,0.481,0.432,0.400,0.218,0.192,west,6.8,No
2016/03/03,11:20,0.465,0.267,0.484,0.432,0.398,0.219,0.191,west,5.4,No
2016/03/03,11:30,0.463,0.266,0.481,0.431,0.401,0.219,0.192,west-southwest,4.6,No
2016/03/03,11:40,0.464,0.269,0.484,0.432,0.398,0.218,0.193,west,5.0,No
2016/03/03,11:50,0.463,0.266,0.483,0.430,0.400,0.219,0.193,west-northwest,4.5,No
2016/03/03,12:00,0.467,0.267,0.484,0.433,0.399,0.218,0.192,west-southwest,4.2,No
2016/03/03,12:10,0.463,0.269,0.483,0.430,0.398,0.220,0.192,west-southwest,5.6,No
2016/03/03,12:20,0.466,0.269,0.480,0.435,0.401,0.219,0.192,west-southwest,2.8,No
2016/03/03,12:30,0.464,0.268,0.485,0.433,0.398,0.219,0.191,west,4.5,No
2016/03/03,12:40,0.464,0.266,0.481,0.432,0.401,0.219,0.192,west,9.0,No
2016/03/03,12:50,0.465,0.268,0.485,0.432,0.399,0.218,0.193,west,10.6,No
2016/03/03,13:00,0.463,0.268,0.483,0.431,0.399,0.219,0.192,west,7.0,No
2016/03/03,13:10,0.467,0.267,0.482,0.434,0.402,0.220,0.193,west-northwest,3.9,No
2016/03/03,13:20,0.465,0.269,0.483,0.432,0.397,0.219,0.190,west,6.6,No
2016/03/03,13:30,0.465,0.267,0.483,0.434,0.399,0.219,0.191,west,4.7,No
2016/03/03,13:40,0.464,0.267,0.486,0.432,0.399,0.219,0.192,west-southwest,7.0,No
2016/03/03,13:50,0.464,0.269,0.480,0.431,0.399,0.220,0.192,west,11.4,No
2016/03/03,14:00,0.464,0.268,0.485,0.433,0.399,0.218,0.192,west,6.9,No
2016/03/03,14:10,0.463,0.269,0.479,0.428,0.398,0.219,0.191,west-northwest,6.9,No
2016/03/03,14:20,0.466,0.266,0.484,0.433,0.400,0.218,0.193,northwest,7.1,No
2016/03/03,14:30,0.463,0.268,0.482,0.430,0.398,0.219,0.193,northwest,5.2,No
2016/03/03,14:40,0.467,0.268,0.483,0.434,0.402,0.219,0.192,west-northwest,6.6,No
2016/03/03,14:50,0.465,0.268,0.485,0.431,0.397,0.219,0.193,northwest,5.7,No
2016/03/03,15:00,0.465,0.269,0.482,0.433,0.402,0.219,0.192,west,5.5,No
2016/03/03,15:10,0.470,0.267,0.487,0.434,0.399,0.218,0.190,west,7.0,No
2016/03/03,15:20,0.464,0.268,0.482,0.432,0.401,0.219,0.192,west,4.0,No
2016/03/03,15:30,0.467,0.269,0.484,0.435,0.400,0.218,0.192,west-northwest,5.3,No
2016/03/03,15:40,0.464,0.267,0.484,0.431,0.398,0.220,0.192,west-northwest,6.5,No
2016/03/03,15:50,0.465,0.268,0.482,0.433,0.401,0.218,0.192,west,6.5,No
2016/03/03,16:00,0.465,0.267,0.487,0.434,0.397,0.219,0.192,west,8.1,No
2016/03/03,16:10,0.463,0.267,0.483,0.432,0.399,0.220,0.192,northwest,4.8,No
2016/03/03,16:20,0.466,0.269,0.487,0.435,0.399,0.219,0.192,west,5.0,No
2016/03/03,16:30,0.464,0.267,0.483,0.432,0.398,0.219,0.192,west,7.0,No
2016/03/03,16:40,0.466,0.268,0.483,0.434,0.400,0.218,0.191,west,7.1,No
2016/03/03,16:50,0.467,0.268,0.484,0.432,0.398,0.220,0.193,west,5.9,No
2016/03/03,17:00,0.464,0.267,0.483,0.431,0.398,0.218,0.192,west-northwest,6.3,No
2016/03/03,17:10,0.466,0.268,0.486,0.432,0.400,0.219,0.192,west-northwest,5.6,No
2016/03/03,17:20,0.466,0.268,0.482,0.433,0.400,0.218,0.193,west-northwest,8.5,No
2016/03/03,17:30,0.465,0.267,0.484,0.433,0.399,0.218,0.192,west-northwest,9.5,No
2016/03/03,17:40,0.468,0.267,0.486,0.435,0.399,0.219,0.193,west-northwest,9.2,No
2016/03/03,17:50,0.466,0.268,0.483,0.432,0.400,0.220,0.193,west-northwest,6.2,No
2016/03/03,18:00,0.465,0.267,0.484,0.433,0.399,0.219,0.192,west-northwest,4.4,No
2016/03/03,18:10,0.466,0.268,0.484,0.435,0.399,0.219,0.193,west,3.3,No
2016/03/03,18:20,0.465,0.267,0.483,0.432,0.398,0.219,0.191,west-northwest,4.4,No
2016/03/03,18:30,0.468,0.267,0.485,0.432,0.399,0.219,0.192,west,4.6,No
2016/03/03,18:40,0.467,0.268,0.484,0.433,0.398,0.219,0.191,west-northwest,3.9,No
2016/03/03,18:50,0.465,0.268,0.482,0.431,0.397,0.219,0.192,northwest,4.5,No
2016/03/03,19:00,0.467,0.267,0.486,0.433,0.397,0.220,0.192,west-northwest,4.7,No
2016/03/03,19:10,0.468,0.268,0.485,0.435,0.399,0.218,0.192,north-northwest,4.8,No
2016/03/03,19:20,0.466,0.269,0.482,0.432,0.399,0.219,0.192,north-northwest,2.5,No
2016/03/03,19:30,0.467,0.268,0.486,0.432,0.399,0.219,0.194,north-northwest,1.9,No
2016/03/03,19:40,0.466,0.267,0.483,0.434,0.400,0.218,0.193,north-northwest,2.5,No
2016/03/03,19:50,0.465,0.267,0.481,0.433,0.398,0.219,0.192,northwest,4.5,No
2016/03/03,20:00,0.466,0.268,0.487,0.434,0.398,0.219,0.192,north-northwest,4.2,No
2016/03/03,20:10,0.466,0.267,0.484,0.434,0.398,0.220,0.193,north,5.3,No
2016/03/03,20:20,0.466,0.268,0.485,0.432,0.398,0.219,0.192,north,7.4,No
2016/03/03,20:30,0.466,0.266,0.484,0.434,0.398,0.220,0.193,north,8.1,No
2016/03/03,20:40,0.467,0.267,0.483,0.435,0.400,0.219,0.193,north-northwest,5.1,No
2016/03/03,20:50,0.464,0.268,0.483,0.433,0.400,0.219,0.192,north,4.0,No
2016/03/03,21:00,0.466,0.267,0.485,0.432,0.398,0.220,0.192,north,4.7,No
2016/03/03,21:10,0.466,0.269,0.485,0.434,0.398,0.218,0.193,north,4.2,No
2016/03/03,21:20,0.465,0.268,0.482,0.433,0.399,0.219,0.193,north-northwest,5.6,No
2016/03/03,21:30,0.463,0.266,0.486,0.432,0.399,0.218,0.192,north-northwest,5.4,No
2016/03/03,21:40,0.467,0.267,0.485,0.433,0.398,0.219,0.192,north,5.0,No
2016/03/03,21:50,0.465,0.269,0.482,0.434,0.398,0.219,0.193,north-northwest,4.3,No
2016/03/03,22:00,0.465,0.269,0.486,0.433,0.401,0.220,0.193,north,3.6,No
2016/03/03,22:10,0.466,0.269,0.484,0.433,0.398,0.219,0.193,north,4.5,No
2016/03/03,22:20,0.465,0.268,0.484,0.434,0.398,0.219,0.192,north,3.9,No
2016/03/03,22:30,0.466,0.268,0.483,0.433,0.399,0.219,0.192,north-northwest,3.5,No
2016/03/03,22:40,-,-,-,-,-,-,-,-,-,-
2016/03/03,22:50,0.467,0.267,0.484,0.435,0.398,0.220,0.193,north,2.9,No
2016/03/03,23:00,0.465,0.268,0.483,0.433,0.398,0.219,0.192,north,3.1,No
2016/03/03,23:10,0.465,0.268,0.486,0.431,0.398,0.219,0.193,north,4.2,No
2016/03/03,23:20,0.465,0.268,0.484,0.433,0.399,0.220,0.193,north,4.0,No
2016/03/03,23:30,0.467,0.268,0.484,0.433,0.398,0.219,0.193,north,4.4,No
2016/03/03,23:40,0.467,0.267,0.485,0.433,0.396,0.219,0.192,north,4.6,No
2016/03/03,23:50,0.467,0.269,0.486,0.432,0.399,0.219,0.192,north,4.7,No
